Location: State Camp
(41.2367°N, 77.7828°W)
Time: 16:32:23
(UTC-04:00)

ADEOS Rocket - Visible Passes

Search period start: 30 May 2015 00:00
Search period end: 09 June 2015 00:00
Orbit: 859 x 1308 km, 98.7° (Epoch: 28 May)

Date Brightness Start Highest point End Pass type
(mag) Time Alt. Az. Time Alt. Az. Time Alt. Az.
30 May 5.2 21:15:06 10° SW 21:19:16 21° W 21:23:17 10° NW visible
01 Jun 5.3 21:23:22 10° SW 21:27:04 18° W 21:30:36 10° NW visible
03 Jun 5.4 21:31:47 10° WSW 21:34:55 15° W 21:37:48 10° NW visible
05 Jun 5.5 21:40:30 10° WSW 21:42:48 12° W 21:44:44 10° WNW visible
